Cross City, FL

5:14 AM EDT on October 15, 2019 (GMT -0400)
Cross City

Weather History for KCTY - July, 2019

Change the Weather History Date:

Wednesday, July 10, 2019

  Actual Average Record
Temperature  
Mean Temperature 81 °F 81 °F  
Max Temperature 86 °F 91 °F 97 °F (2015)
Min Temperature 76 °F 71 °F 66 °F (2006)
Degree Days  
Heating Degree Days 0    
Month to date heating degree days 0  
Since 1 June heating degree days 0  
Since 1 July heating degree days 0  
Cooling Degree Days 16    
Month to date cooling degree days 184  
Year to date cooling degree days 1360  
Since 1 June cooling degree days 676  
Growing Degree Days 30 (Base 50)    
Moisture  
Dew Point 76 °F    
Average Humidity 89    
Maximum Humidity 98    
Minimum Humidity 72    
Precipitation  
Precipitation 0.38 in 0.19 in 2.37 in (2005)
Month to date precipitation 1.65 1.66  
Year to date precipitation 30.30 23.92  
Sea Level Pressure  
Sea Level Pressure 29.97 in    
Wind  
Wind Speed 6 mph (SE)    
Max Wind Speed 16 mph    
Max Gust Speed 25 mph    
Visibility 9 miles    
Events Rain , Thunderstorm    
T = Trace of Precipitation, MM = Missing Value Source: NWS Daily Summary

Daily Weather History Graph

Daily Weather History Graph

Search for Another Location

Airport or City:

Astronomy

Jul. 10, 2019 Rise Set
Actual Time 6:39 AM EDT 8:35 PM EDT
Civil Twilight 6:12 AM EDT 9:02 PM EDT
Nautical Twilight 5:40 AM EDT 9:35 PM EDT
Astronomical Twilight 5:05 AM EDT 10:09 PM EDT
Moon 2:57 PM EDT (7/10) 1:58 AM EDT (7/10)
Length of Visible Light 14h 49m
Length of Day
13h 56m
Waxing Gibbous, 63% of the Moon is Illuminated
Jul 10
Waxing Gibbous
Jul 16
Full
Jul 24
Last Quarter
Jul 31
New
Aug 7
First Quarter

Hourly Weather History & Observations

Time (EDT) Temp. Heat Index Dew Point Humidity Pressure Visibility Wind Dir Wind Speed Gust Speed Precip Events Conditions
12:15 AM 77.0 °F - 76.3 °F 98% 29.95 in 7.0 mi East 3.5 mph - N/A   Clear
12:35 AM 77.0 °F - 76.1 °F 97% 29.95 in 10.0 mi ESE 4.6 mph - N/A   Clear
12:55 AM 76.6 °F - 75.9 °F 98% 29.94 in 10.0 mi ESE 4.6 mph - N/A Thunderstorm Thunderstorm
1:15 AM 76.6 °F - 75.7 °F 97% 29.94 in 10.0 mi ESE 5.8 mph - N/A Thunderstorm Clear
1:35 AM 76.6 °F - 75.9 °F 98% 29.94 in 10.0 mi SSE 4.6 mph - N/A   Clear
1:55 AM 76.6 °F - 75.7 °F 97% 29.94 in 10.0 mi SSE 5.8 mph - N/A   Clear
2:15 AM 76.5 °F - 75.7 °F 98% 29.93 in 7.0 mi SE 4.6 mph - N/A   Clear
2:35 AM 77.0 °F - 75.2 °F 94% 29.94 in 7.0 mi SSE 3.5 mph - N/A Thunderstorm Mostly Cloudy
2:55 AM 76.5 °F - 75.7 °F 98% 29.94 in 7.0 mi Calm Calm - N/A   Overcast
3:15 AM 76.5 °F - 75.9 °F 98% 29.93 in 5.0 mi Calm Calm - N/A   Overcast
3:35 AM 76.5 °F - 75.9 °F 98% 29.93 in 7.0 mi ESE 3.5 mph - N/A   Overcast
3:55 AM 76.6 °F - 76.1 °F 98% 29.93 in 7.0 mi ESE 3.5 mph - N/A   Overcast
4:35 AM 76.6 °F - 76.1 °F 98% 29.92 in 5.0 mi ESE 4.6 mph - N/A   Overcast
4:55 AM 76.6 °F - 76.1 °F 98% 29.92 in 5.0 mi SE 3.5 mph - N/A Thunderstorm Overcast
5:15 AM 76.6 °F - 76.1 °F 98% 29.94 in 7.0 mi SSE 5.8 mph - N/A   Overcast
5:35 AM 76.5 °F - 75.9 °F 98% 29.93 in 7.0 mi SE 3.5 mph - N/A   Overcast
5:55 AM 76.5 °F - 75.9 °F 98% 29.94 in 7.0 mi ESE 3.5 mph - N/A   Overcast
6:15 AM 76.5 °F - 75.9 °F 98% 29.95 in 7.0 mi SE 4.6 mph - N/A   Overcast
6:35 AM 76.3 °F - 75.6 °F 98% 29.95 in 7.0 mi SSE 4.6 mph - N/A   Overcast
6:55 AM 76.5 °F - 75.7 °F 98% 29.96 in 7.0 mi South 6.9 mph - N/A   Overcast
7:15 AM 76.3 °F - 75.6 °F 98% 29.96 in 7.0 mi ESE 3.5 mph - N/A   Mostly Cloudy
7:35 AM 77.2 °F - 76.1 °F 96% 29.96 in 10.0 mi ESE 3.5 mph - N/A   Mostly Cloudy
7:55 AM 78.1 °F - 75.7 °F 92% 29.97 in 10.0 mi ESE 3.5 mph - N/A   Scattered Clouds
8:15 AM 79.2 °F - 76.3 °F 91% 29.98 in 10.0 mi East 4.6 mph - N/A   Scattered Clouds
8:35 AM 79.0 °F - 75.9 °F 90% 29.99 in 7.0 mi ESE 4.6 mph - N/A Thunderstorm Mostly Cloudy
8:55 AM 79.3 °F - 76.3 °F 90% 29.99 in 10.0 mi SE 4.6 mph - N/A Thunderstorm Overcast
9:15 AM 79.7 °F - 76.3 °F 89% 29.99 in 7.0 mi ESE 4.6 mph - N/A   Overcast
9:35 AM 80.8 °F 87.2 °F 76.5 °F 87% 29.99 in 10.0 mi ESE 4.6 mph - N/A   Overcast
9:55 AM 79.5 °F - 76.8 °F 91% 29.99 in 5.0 mi Calm Calm - 0.02 in Rain Light Rain
10:15 AM 82.4 °F 91.8 °F 78.3 °F 87% 29.99 in 7.0 mi SSE 5.8 mph - N/A Thunderstorm Overcast
10:35 AM 83.5 °F 93.6 °F 77.7 °F 83% 29.99 in 10.0 mi SE 6.9 mph - N/A   Overcast
11:15 AM 84.6 °F 94.7 °F 77.0 °F 78% 29.98 in 5.0 mi ESE 4.6 mph - N/A   Haze
11:35 AM 85.6 °F 97.3 °F 77.7 °F 77% 29.98 in 7.0 mi SSE 8.1 mph - N/A   Mostly Cloudy
11:55 AM 81.5 °F 88.3 °F 75.9 °F 83% 30.01 in 10.0 mi South 16.1 mph 25.3 mph N/A   Mostly Cloudy
12:15 PM 78.4 °F - 77.4 °F 96% 30.00 in 7.0 mi South 11.5 mph - 0.30 in Rain Light Rain
12:35 PM 78.8 °F - 76.6 °F 93% 29.99 in 10.0 mi South 6.9 mph - 0.31 in   Mostly Cloudy
12:55 PM 81.3 °F 89.2 °F 77.7 °F 89% 29.98 in 10.0 mi South 8.1 mph - 0.31 in   Scattered Clouds
1:15 PM 82.0 °F 90.8 °F 77.9 °F 87% 29.99 in - South 9.2 mph - N/A   Mostly Cloudy
1:35 PM 83.1 °F 93.6 °F 78.4 °F 86% 29.99 in - South 10.4 mph - N/A   Scattered Clouds
1:55 PM 84.6 °F 95.1 °F 77.5 °F 79% 29.99 in 10.0 mi South 13.8 mph - N/A   Scattered Clouds
2:15 PM 84.7 °F 95.6 °F 77.7 °F 79% 29.98 in 10.0 mi South 9.2 mph - N/A   Scattered Clouds
2:35 PM 85.5 °F 96.8 °F 77.5 °F 77% 29.99 in 10.0 mi South 9.2 mph - N/A   Scattered Clouds
2:55 PM 84.2 °F 93.8 °F 76.6 °F 78% 29.98 in 10.0 mi South 8.1 mph - N/A   Scattered Clouds
3:15 PM 84.4 °F 93.5 °F 75.9 °F 76% 29.98 in 10.0 mi SSW 9.2 mph - N/A   Scattered Clouds
3:35 PM 84.6 °F 92.4 °F 74.7 °F 72% 29.98 in 10.0 mi South 13.8 mph - N/A   Clear
3:55 PM 84.2 °F 91.9 °F 74.8 °F 73% 29.97 in 10.0 mi South 10.4 mph - N/A   Clear
4:15 PM 84.0 °F 92.6 °F 75.7 °F 76% 29.97 in 10.0 mi South 8.1 mph - N/A   Clear
4:35 PM 83.8 °F 92.1 °F 75.7 °F 76% 29.97 in 10.0 mi South 8.1 mph - N/A   Clear
4:55 PM 82.8 °F 90.4 °F 75.7 °F 79% 29.96 in 10.0 mi SSE 8.1 mph - N/A   Scattered Clouds
5:15 PM 81.9 °F 88.9 °F 75.7 °F 82% 29.96 in 10.0 mi SSE 5.8 mph - N/A   Clear
5:35 PM 82.0 °F 89.4 °F 75.9 °F 82% 29.96 in 10.0 mi SSE 6.9 mph - N/A   Clear
5:55 PM 82.8 °F 91.6 °F 77.2 °F 83% 29.96 in 10.0 mi SSE 5.8 mph - N/A   Clear
6:15 PM 82.8 °F 91.3 °F 76.6 °F 82% 29.96 in 10.0 mi South 10.4 mph - N/A   Scattered Clouds
6:35 PM 82.6 °F 89.7 °F 75.2 °F 78% 29.96 in 10.0 mi South 6.9 mph - N/A   Clear
6:55 PM 82.0 °F 88.9 °F 75.2 °F 80% 29.97 in 10.0 mi SSE 4.6 mph - N/A   Clear
7:15 PM 81.9 °F 88.5 °F 75.2 °F 80% 29.97 in 10.0 mi SSE 5.8 mph - N/A   Clear
7:35 PM 81.5 °F 87.8 °F 75.2 °F 81% 29.98 in 10.0 mi Calm Calm - N/A   Clear
7:55 PM 81.1 °F 87.4 °F 75.6 °F 83% 29.97 in 10.0 mi Calm Calm - N/A   Clear
8:15 PM 80.6 °F 86.2 °F 75.2 °F 84% 29.97 in 10.0 mi ESE 3.5 mph - N/A   Clear
8:35 PM 79.9 °F - 75.7 °F 87% 29.97 in 10.0 mi ESE 3.5 mph - N/A   Clear
8:55 PM 79.3 °F - 76.1 °F 90% 29.96 in 7.0 mi East 3.5 mph - N/A   Clear
9:15 PM 79.0 °F - 76.3 °F 91% 29.97 in 10.0 mi SE 3.5 mph - N/A   Clear
9:35 PM 78.8 °F - 76.3 °F 92% 29.97 in 10.0 mi SSE 3.5 mph - N/A   Clear
9:55 PM 78.8 °F - 77.0 °F 94% 29.97 in 10.0 mi SSE 4.6 mph - N/A   Clear
10:15 PM 78.4 °F - 76.3 °F 93% 29.97 in 10.0 mi SSE 5.8 mph - N/A   Clear
10:35 PM 78.3 °F - 76.1 °F 93% 29.97 in 10.0 mi SSE 6.9 mph - N/A   Clear
10:55 PM 78.8 °F - 75.2 °F 89% 29.97 in 10.0 mi SSE 5.8 mph - N/A   Clear
11:15 PM 78.3 °F - 75.6 °F 91% 29.97 in 10.0 mi SSE 4.6 mph - N/A   Clear
11:55 PM 77.5 °F - 75.6 °F 94% 29.99 in 10.0 mi ESE 3.5 mph - N/A   Clear